TimePDT,TemperatureF,Dew PointF,Humidity,Sea Level PressureIn,VisibilityMPH,Wind Direction,Wind SpeedMPH,Gust SpeedMPH,PrecipitationIn,Events,Conditions,WindDirDegrees,DateUTC
12:23 AM,44.6,42.8,93,30.29,10.0,South,6.9,-,N/A,,Scattered Clouds,180,2013-04-21 07:23:00
12:28 AM,44.6,42.8,93,30.29,10.0,South,8.1,-,N/A,,Mostly Cloudy,170,2013-04-21 07:28:00
12:58 AM,44.4,42.6,93,30.31,10.0,South,6.9,-,N/A,,Overcast,170,2013-04-21 07:58:00
1:58 AM,43.7,41.9,93,30.30,10.0,South,9.2,-,N/A,,Overcast,170,2013-04-21 08:58:00
2:58 AM,44.2,42.1,92,30.30,10.0,South,8.1,-,N/A,,Overcast,180,2013-04-21 09:58:00
3:58 AM,43.9,41.7,92,30.28,10.0,South,8.1,-,N/A,,Overcast,170,2013-04-21 10:58:00
4:58 AM,43.0,41.2,93,30.29,10.0,South,6.9,-,N/A,,Overcast,180,2013-04-21 11:58:00
5:53 AM,41.0,41.0,100,30.26,10.0,South,5.8,-,N/A,,Overcast,180,2013-04-21 12:53:00
5:58 AM,41.4,40.5,97,30.28,10.0,South,5.8,-,N/A,,Overcast,180,2013-04-21 12:58:00
6:43 AM,39.2,39.2,100,30.26,10.0,South,6.9,-,N/A,,Mostly Cloudy,180,2013-04-21 13:43:00
6:48 AM,39.2,39.2,100,30.26,10.0,South,6.9,-,N/A,,Scattered Clouds,180,2013-04-21 13:48:00
6:58 AM,40.8,40.6,99,30.28,10.0,South,6.9,-,N/A,,Partly Cloudy,180,2013-04-21 13:58:00
7:58 AM,45.5,42.1,88,30.27,10.0,SSW,12.7,-,N/A,,Partly Cloudy,200,2013-04-21 14:58:00
8:18 AM,46.4,42.8,87,30.25,10.0,SSW,9.2,-,N/A,,Mostly Cloudy,210,2013-04-21 15:18:00
8:48 AM,48.2,41.0,76,30.25,10.0,SSW,11.5,-,N/A,,Scattered Clouds,210,2013-04-21 15:48:00
8:58 AM,48.4,41.4,77,30.27,10.0,SSW,12.7,-,N/A,,Mostly Cloudy,210,2013-04-21 15:58:00
9:13 AM,50.0,41.0,71,30.25,10.0,SW,11.5,-,N/A,,Mostly Cloudy,220,2013-04-21 16:13:00
9:18 AM,50.0,41.0,71,30.25,10.0,SSW,12.7,-,N/A,,Overcast,200,2013-04-21 16:18:00
9:58 AM,49.3,40.5,72,30.26,10.0,SW,12.7,-,N/A,,Overcast,220,2013-04-21 16:58:00
10:58 AM,50.5,41.5,71,30.26,10.0,SSW,11.5,-,N/A,,Overcast,210,2013-04-21 17:58:00
11:38 AM,50.0,41.0,71,30.24,10.0,SSW,9.2,-,N/A,,Overcast,200,2013-04-21 18:38:00
11:58 AM,50.5,41.2,70,30.27,10.0,SW,10.4,-,N/A,,Overcast,220,2013-04-21 18:58:00
12:08 PM,51.8,41.0,67,30.24,10.0,SW,11.5,-,N/A,,Overcast,220,2013-04-21 19:08:00
12:13 PM,50.0,41.0,71,30.24,10.0,SW,9.2,-,N/A,,Overcast,230,2013-04-21 19:13:00
12:38 PM,50.0,42.8,76,30.25,10.0,SW,8.1,-,N/A,,Overcast,220,2013-04-21 19:38:00
12:58 PM,52.3,42.6,69,30.26,10.0,WSW,10.4,-,N/A,,Overcast,250,2013-04-21 19:58:00
1:58 PM,53.8,38.3,56,30.25,10.0,West,11.5,20.7,N/A,,Overcast,260,2013-04-21 20:58:00
2:58 PM,55.6,39.9,56,30.26,10.0,West,6.9,-,N/A,,Overcast,270,2013-04-21 21:58:00
3:58 PM,51.4,42.8,72,30.27,10.0,North,12.7,-,N/A,,Overcast,10,2013-04-21 22:58:00
4:23 PM,51.8,42.8,71,30.26,10.0,North,10.4,-,N/A,,Overcast,360,2013-04-21 23:23:00
4:30 PM,50.0,41.0,71,30.26,10.0,NNE,15.0,-,N/A,Rain,Light Rain,20,2013-04-21 23:30:00
4:58 PM,48.4,42.1,79,30.29,10.0,North,10.4,-,0.00,Rain,Light Rain,350,2013-04-21 23:58:00
5:03 PM,48.2,42.8,82,30.28,10.0,North,9.2,-,N/A,Rain,Light Rain,360,2013-04-22 00:03:00
5:08 PM,48.2,42.8,82,30.28,10.0,North,9.2,-,N/A,Rain,Light Rain,360,2013-04-22 00:08:00
5:18 PM,48.2,42.8,82,30.28,9.0,North,6.9,-,N/A,Rain,Light Rain,10,2013-04-22 00:18:00
5:55 PM,48.2,42.8,82,30.27,10.0,SE,2.3,-,N/A,,Mostly Cloudy,140,2013-04-22 00:55:00
5:58 PM,47.8,42.6,82,30.29,10.0,SSE,2.3,-,0.03,,Mostly Cloudy,150,2013-04-22 00:58:00
6:58 PM,48.2,43.7,84,30.30,10.0,SE,4.6,-,N/A,,Overcast,130,2013-04-22 01:58:00
7:58 PM,47.1,44.2,90,30.32,10.0,South,4.6,-,N/A,,Overcast,180,2013-04-22 02:58:00
8:58 PM,46.0,45.0,96,30.34,10.0,Calm,Calm,-,N/A,,Overcast,0,2013-04-22 03:58:00
9:58 PM,44.6,39.7,83,30.36,10.0,NNE,4.6,-,N/A,,Partly Cloudy,20,2013-04-22 04:58:00
10:58 PM,43.9,39.0,83,30.37,10.0,North,5.8,-,N/A,,Clear,360,2013-04-22 05:58:00
11:58 PM,38.7,38.3,99,30.39,10.0,East,2.3,-,N/A,,Clear,100,2013-04-22 06:58:00